Regional Weather Roundup
Issued by NWS Newport/Morehead, NC

Current Version | Previous Version | Text Only | Print | Product List | Glossary On
Versions: 1 2 3 4 5 6 7 8 9 10 11 12 13 14 15 16 17 18 19 20 21 22 23 24 25 26 27 28 29 30 31 32 33 34 35 36 37 38 39 40 41 42 43 44 45 46 47 48 49 50
000 ASUS42 KMHX 121325 RWRMHX WEATHER ROUNDUP FOR EASTERN NORTH CAROLINA NATIONAL WEATHER SERVICE NEWPORT/MOREHEAD CITY NC 800 AM EST TUE DEC 12 2017 NOTE: "FAIR" INDICATES FEW OR NO CLOUDS BELOW 12,000 FEET WITH NO SIGNIFICANT WEATHER AND/OR OBSTRUCTIONS TO VISIBILITY NCZ015>017-031-032-045>047-102-103-121400- NORTH COAST CITY SKY/WX TMP DP RH WIND PRES REMARKS EDENTON CLEAR 44 38 80 SW10G16 29.75S ELIZABETH CITY CLEAR 45 40 82 S13 29.73F KITTY HAWK SUNNY 46 40 80 SW9G16 29.74S MANTEO CLEAR 46 42 84 SW15 29.75F $$ NCZ045>047-081-094-103-104-121400- CENTRAL COAST CITY SKY/WX TMP DP RH WIND PRES REMARKS FRISCO CLEAR 59 45 59 SW17G29 29.79F $$ NCZ095-097-098-100-101-121400- SOUTHERN COAST CITY SKY/WX TMP DP RH WIND PRES REMARKS BEAUFORT CLEAR 56 45 66 SW14 29.80F CEDAR ISLAND NOT AVBL JACKSONVILLE CLEAR 48 39 71 SW7 29.78F PINEY ISLAND N/A N/A N/A N/A S7 29.78F WILMINGTON CLEAR 49 40 71 SW9 29.80F $$ NCZ011>013-027>030-043-044-078>080-089-090>093-098-121400- COASTAL PLAIN CITY SKY/WX TMP DP RH WIND PRES REMARKS AHOSKIE PTCLDY 40 35 81 S6 29.72F CLINTON PTCLDY 42 38 84 S3 29.77F ELIZABETHTOWN NOT AVBL GOLDSBORO CLEAR 42 35 76 SW9 29.74F GREENVILLE CLEAR 41 36 81 SW7 29.77F HAVELOCK CLEAR 51 42 71 SW13 29.79F KENANSVILLE CLEAR 43 37 81 SW5 29.77S KINSTON CLEAR 41 36 81 S10 29.78S NEW BERN PTCLDY 45 39 79 S9 29.78F RICHLANDS CLEAR 43 38 82 SW10 29.78F ROCKY MOUNT PTCLDY 41 36 82 S8 29.73F WASHINGTON CLEAR 42 36 78 S5 29.75F WHITEVILLE CLEAR 47 38 71 SW10 29.79F $$ AMZ130-135-150-152-154-156-158-170-250-252-270-ANZ085-086-088-633-658-670-121400- MARINE OBSERVATIONS STATION/POSITION TIME TEMP WIND PRES WAVE SWELL AIR SEA DIR/SP/G HT/PER HT/PER (UTC) (F) (DEG/KT/KT) (MB) (FT/S) (FT/S) CHESAPEAKE LIGHT NOT AVBL 64 E VA BEACH 1250 55 60 220/ 21/ 25 1006.4 5/ 4 2/ 9 DUCK 1300 47 55 200/ 14/ 17 1006.0 2 E DUCK 1300 54 N/A 2/ 8 OREGON INLET 1300 46 200/ 17/ 20 1007.4 13E OREGON INLT 1248 57 N/A 3/ 3 2/ 8 HATTERAS CG 1300 58 55 230/ 16/ 23 1008.2 DIAMOND BUOY 1300 64 74 230/ 23/ 33 1008.8 CAPE LOOKOUT 1300 230/ 16/ 21 1009.2 BEAUFORT LAB 1300 57 52 230/ 6/ 13 1008.8 30 SE NEW RVR IN 1308 61 66 230/ 17/ 25 1009.2 30 SE NEW RVR IN 1300 66 N/A 7/ 6 27 SE WRIGHTSVLE 1208 60 65 230/ 23/ 35 1010.8 5 SE WRIGHTSVLE 1208 56 58 240/ 16/ 21 1009.6 225 S CAPE HAT 1250 69 75 230/ 19/ 23 1013.2 5/ 6 2/ 9 41 SE CHARLESTON 1300 74 250/ 19/ 25 1011.4 $$

USA.gov is the U.S. government's official web portal to all federal, state and local government web resources and services.